Location: Nashville
(36.1660°N, 86.7840°W)
Time: 04:52:36
(UTC-06:00)

deb Explorer IX - All Passes

Search period start: 19 January 2022 00:00
Search period end: 29 January 2022 00:00
Orbit: 544 x 1082 km, 38.8° (Epoch: 18 January)

Date Brightness Start Highest point End Pass type
(mag) Time Alt. Az. Time Alt. Az. Time Alt. Az.
19 Jan - 13:13:11 10° S 13:15:55 17° SE 13:18:35 10° ESE daylight
19 Jan - 14:57:56 10° WSW 15:02:00 69° SSE 15:06:08 10° ENE daylight
19 Jan - 16:44:33 10° W 16:48:37 60° N 16:52:59 10° ENE daylight
19 Jan - 18:31:04 10° WNW 18:35:23 83° NNE 18:40:16 10° ESE visible
19 Jan - 20:17:39 10° W 20:21:53 35° SSW 20:26:43 10° SE visible
20 Jan - 12:47:24 10° S 12:50:10 17° SE 12:52:50 10° ESE daylight
20 Jan - 14:32:10 10° WSW 14:36:17 68° SSE 14:40:21 10° ENE daylight
20 Jan - 16:18:50 10° W 16:22:52 60° N 16:27:08 10° ENE daylight
20 Jan - 18:05:23 10° WNW 18:09:37 82° NNE 18:14:19 10° ESE visible
20 Jan - 19:51:58 10° W 19:56:05 35° SSW 20:00:45 10° SE visible
21 Jan - 12:21:33 10° S 12:24:24 17° SSE 12:27:05 10° ESE daylight
21 Jan - 14:06:21 10° WSW 14:10:32 67° SSE 14:14:35 10° ENE daylight
21 Jan - 15:53:04 10° W 15:57:06 60° N 16:01:17 10° ENE daylight
21 Jan - 17:39:40 10° WNW 17:43:50 81° NNE 17:48:24 10° ESE visible
21 Jan - 19:26:16 10° W 19:30:16 35° SSW 19:34:46 10° SE visible
22 Jan - 11:55:41 10° S 11:58:35 17° SSE 12:01:21 10° ESE daylight
22 Jan - 13:40:30 10° WSW 13:44:46 66° SSE 13:48:49 10° ENE daylight
22 Jan - 15:27:16 10° W 15:31:20 60° N 15:35:26 10° ENE daylight
22 Jan - 17:13:56 10° WNW 17:18:03 80° NNE 17:22:29 10° E daylight
22 Jan - 19:00:33 10° W 19:04:28 34° SSW 19:08:48 10° SE visible
23 Jan - 11:29:45 10° S 11:32:46 17° SSE 11:35:37 10° ESE daylight
23 Jan - 13:14:36 10° WSW 13:18:58 65° SSE 13:23:02 10° ENE daylight
23 Jan - 15:01:27 10° W 15:05:33 60° N 15:09:36 10° ENE daylight
23 Jan - 16:48:10 10° WNW 16:52:15 79° NNE 16:56:34 10° E daylight
23 Jan - 18:34:48 10° W 18:38:38 34° SSW 18:42:51 10° SE visible
24 Jan - 11:03:46 10° S 11:06:56 17° SSE 11:09:52 10° ESE daylight
24 Jan - 12:48:40 10° WSW 12:53:10 64° SSE 12:57:16 10° ENE daylight
24 Jan - 14:35:34 10° W 14:39:45 61° N 14:43:47 10° ENE daylight
24 Jan - 16:22:21 10° WNW 16:26:26 77° NNE 16:30:40 10° E daylight
24 Jan - 18:09:02 10° W 18:12:49 34° SSW 18:16:53 10° SE visible
25 Jan - 10:37:45 10° S 10:41:03 18° SSE 10:44:07 10° ESE daylight
25 Jan - 12:22:41 10° WSW 12:27:19 63° SSE 12:31:29 10° ENE daylight
25 Jan - 14:09:38 10° W 14:13:54 61° N 14:17:58 10° ENE daylight
25 Jan - 15:56:31 10° WNW 16:00:38 76° NNE 16:04:46 10° E daylight
25 Jan - 17:43:14 10° W 17:46:59 35° SSW 17:50:58 10° SE visible
26 Jan - 10:11:41 10° S 10:15:09 18° SSE 10:18:20 10° ESE daylight
26 Jan - 11:56:40 10° WSW 12:01:28 63° SSE 12:05:42 10° ENE daylight
26 Jan - 13:43:41 10° W 13:48:03 62° N 13:52:08 10° ENE daylight
26 Jan - 15:30:38 10° WNW 15:34:47 75° NNE 15:38:53 10° E daylight
26 Jan - 17:17:23 10° W 17:21:08 35° SSW 17:25:02 10° SE daylight
27 Jan - 09:45:36 10° S 09:49:13 18° SSE 09:52:32 10° ESE daylight
27 Jan - 11:30:36 10° WSW 11:35:34 62° SSE 11:39:54 10° ENE daylight
27 Jan - 13:17:40 10° W 13:22:11 63° N 13:26:18 10° ENE daylight
27 Jan - 15:04:43 10° WNW 15:08:55 75° NNE 15:13:01 10° E daylight
27 Jan - 16:51:32 10° W 16:55:16 35° SSW 16:59:07 10° SE daylight
28 Jan - 09:19:28 10° S 09:23:15 19° SSE 09:26:43 10° ESE daylight
28 Jan - 11:04:29 10° WSW 11:09:38 62° SSE 11:14:05 10° ENE daylight
28 Jan - 12:51:37 10° W 12:56:17 64° N 13:00:28 10° ENE daylight
28 Jan - 14:38:45 10° WNW 14:43:03 74° NNE 14:47:07 10° E daylight
28 Jan - 16:25:37 10° W 16:29:24 36° SSW 16:33:12 10° SE daylight
